New York, NY

7:44 PM EST on November 18, 2019 (GMT -0500)
La Guardia

Weather History for KLGA - August, 2019

Change the Weather History Date:

Sunday, August 11, 2019

  Actual Average Record
Temperature  
Mean Temperature 76 °F 77 °F  
Max Temperature 83 °F 85 °F 99 °F (1949)
Min Temperature 68 °F 70 °F 57 °F (1962)
Degree Days  
Heating Degree Days 0 0  
Month to date heating degree days 0 0  
Since 1 June heating degree days 4 16  
Since 1 July heating degree days 0 0  
Cooling Degree Days 11 12  
Month to date cooling degree days 154 136  
Year to date cooling degree days 979 818  
Since 1 June cooling degree days 917 752  
Growing Degree Days 25 (Base 50)    
Moisture  
Dew Point 51 °F    
Average Humidity 42    
Maximum Humidity 55    
Minimum Humidity 28    
Precipitation  
Precipitation 0.00 in 0.12 in 2.03 in (1989)
Month to date precipitation 0.84 1.58  
Year to date precipitation 33.54 27.71  
Snow  
Snow 0.00 in 0.00 in - ()
Month to date snowfall 0.0 0.0  
Since 1 July snowfall 0.0 0.0  
Snow Depth 0.00 in    
Sea Level Pressure  
Sea Level Pressure 29.98 in    
Wind  
Wind Speed 7 mph (WNW)    
Max Wind Speed 17 mph    
Max Gust Speed 21 mph    
Visibility 10 miles    
Events      
T = Trace of Precipitation, MM = Missing Value Source: NWS Daily Summary

Daily Weather History Graph

Daily Weather History Graph

Search for Another Location

Airport or City:

Astronomy

Aug. 11, 2019 Rise Set
Actual Time 6:01 AM EDT 7:59 PM EDT
Civil Twilight 5:31 AM EDT 8:28 PM EDT
Nautical Twilight 4:55 AM EDT 9:05 PM EDT
Astronomical Twilight 4:15 AM EDT 9:44 PM EDT
Moon 5:36 PM EDT (8/11) 2:19 AM EDT (8/11)
Length of Visible Light 14h 57m
Length of Day
13h 57m
Waxing Gibbous, 87% of the Moon is Illuminated
Aug 11
Waxing Gibbous
Aug 15
Full
Aug 23
Last Quarter
Aug 30
New
Sep 5
First Quarter

Hourly Weather History & Observations

Time (EDT) Temp. Dew Point Humidity Pressure Visibility Wind Dir Wind Speed Gust Speed Precip Events Conditions
12:51 AM 72.0 °F 50.0 °F 46% 29.94 in 10.0 mi NNW 3.5 mph - N/A   Partly Cloudy
1:51 AM 72.0 °F 50.0 °F 46% 29.94 in 10.0 mi North 4.6 mph - N/A   Partly Cloudy
2:51 AM 72.0 °F 50.0 °F 46% 29.93 in 10.0 mi NW 5.8 mph - N/A   Partly Cloudy
3:51 AM 70.0 °F 52.0 °F 53% 29.94 in 10.0 mi NW 8.1 mph - N/A   Clear
4:51 AM 69.1 °F 51.1 °F 53% 29.96 in 10.0 mi WNW 8.1 mph - N/A   Clear
5:51 AM 68.0 °F 52.0 °F 56% 29.97 in 10.0 mi WNW 6.9 mph - N/A   Partly Cloudy
6:51 AM 69.1 °F 52.0 °F 54% 30.01 in 10.0 mi NW 8.1 mph - N/A   Clear
7:51 AM 70.0 °F 52.0 °F 53% 30.02 in 10.0 mi NW 10.4 mph - N/A   Partly Cloudy
8:51 AM 71.1 °F 53.1 °F 53% 30.01 in 10.0 mi NNW 11.5 mph - N/A   Clear
9:51 AM 73.0 °F 53.1 °F 49% 30.02 in 10.0 mi NW 8.1 mph - N/A   Partly Cloudy
10:51 AM 75.9 °F 51.1 °F 42% 30.03 in 10.0 mi NW 9.2 mph - N/A   Scattered Clouds
11:51 AM 77.0 °F 50.0 °F 39% 30.01 in 10.0 mi NW 6.9 mph - N/A   Scattered Clouds
12:51 PM 77.0 °F 48.9 °F 37% 30.01 in 10.0 mi Variable 3.5 mph - N/A   Mostly Cloudy
1:51 PM 80.1 °F 50.0 °F 35% 30.00 in 10.0 mi Variable 5.8 mph - N/A   Mostly Cloudy
2:51 PM 81.0 °F 50.0 °F 34% 29.99 in 10.0 mi NW 8.1 mph 17.3 mph N/A   Scattered Clouds
3:51 PM 82.0 °F 46.9 °F 29% 29.98 in 10.0 mi WSW 8.1 mph - N/A   Mostly Cloudy
4:51 PM 81.0 °F 50.0 °F 34% 29.97 in 10.0 mi WSW 9.2 mph - N/A   Mostly Cloudy
5:51 PM 82.0 °F 48.9 °F 31% 29.98 in 10.0 mi West 11.5 mph - N/A   Mostly Cloudy
6:51 PM 81.0 °F 50.0 °F 34% 29.98 in 10.0 mi WNW 8.1 mph 17.3 mph N/A   Scattered Clouds
7:51 PM 79.0 °F 53.1 °F 40% 29.97 in 10.0 mi NW 8.1 mph - N/A   Scattered Clouds
8:51 PM 78.1 °F 54.0 °F 43% 29.99 in 10.0 mi WNW 5.8 mph - N/A   Scattered Clouds
9:51 PM 79.0 °F 51.1 °F 38% 30.00 in 10.0 mi WSW 8.1 mph - N/A   Scattered Clouds
10:51 PM 78.1 °F 52.0 °F 40% 29.99 in 10.0 mi SW 5.8 mph - N/A   Partly Cloudy
11:51 PM 77.0 °F 53.1 °F 43% 29.99 in 10.0 mi Calm Calm - N/A   Partly Cloudy